This is the latest recevied weather packets stored in our database for station/object HB9FHL-13. If no packets are shown the sender has not sent any weather packets the latest 10 day(s).
| Time | Temp. | Humidity | Pressure | Rain* | Wind** | Luminosity | Snow |
|---|---|---|---|---|---|---|---|
| 1777639581 | 17.22° C | - | 1021.2 hPa | 0 mm | - | - | - |
| 1777639280 | 16.67° C | - | 1023.8 hPa | 0 mm | - | - | - |
| 1777638980 | 16.11° C | - | 1021.2 hPa | 0 mm | - | - | - |
| 1777638676 | 16.67° C | - | 1023.8 hPa | 0 mm | - | - | - |
| 1777638376 | 16.67° C | - | 1027.4 hPa | 0 mm | - | - | - |
| 1777638077 | 16.11° C | - | 1025 hPa | 0 mm | - | - | - |
| 1777637773 | 15° C | - | 1019.9 hPa | 0 mm | - | - | - |
| 1777637472 | 16.11° C | - | 1026.4 hPa | 0 mm | - | - | - |
| 1777636880 | 16.11° C | - | 1026.2 hPa | 0 mm | - | - | - |
| 1777636569 | 15° C | - | 1019.8 hPa | 0 mm | - | - | - |
| 1777636269 | 15.56° C | - | 1023.6 hPa | 0 mm | - | - | - |
| 1777635961 | 15° C | - | 1023.7 hPa | 0 mm | - | - | - |
| 1777635660 | 15.56° C | - | 1028.8 hPa | 0 mm | - | - | - |
| 1777635360 | 16.11° C | - | 1022.6 hPa | 0 mm | - | - | - |
| 1777635059 | 15° C | - | 1022 hPa | 0 mm | - | - | - |
| 1777634759 | 14.44° C | - | 1028.6 hPa | 0 mm | - | - | - |
| 1777634458 | 14.44° C | - | 1026.4 hPa | 0 mm | - | - | - |
| 1777634158 | 13.89° C | - | 1025.9 hPa | 0 mm | - | - | - |
| 1777633858 | 15° C | - | 1025.6 hPa | 0 mm | - | - | - |
| 1777633557 | 13.89° C | - | 1026 hPa | 0 mm | - | - | - |
| 1777633257 | 15° C | - | 1032.4 hPa | 0 mm | - | - | - |
| 1777632956 | 14.44° C | - | 1027.2 hPa | 0 mm | - | - | - |
| 1777632656 | 14.44° C | - | 1026.5 hPa | 0 mm | - | - | - |
| 1777632355 | 13.89° C | - | 1026.3 hPa | 0 mm | - | - | - |
| 1777632056 | 14.44° C | - | 1026.1 hPa | 0 mm | - | - | - |
* Rain since midnight (hover to see other rain measurements)
** Current wind speed in m/s (hover to see current wind gust speed)